{"data":{"norad_id":58592,"epoch":"2026-09-19T00:35:07.408320Z","epoch_age_seconds":277212,"freshness":"STALE","line1":"1 58592U 23200D   26262.02439130  .00101659  00000+0  18378-2 0  9996","line2":"2 58592  42.9925 145.2515 0023074 221.5208 138.3898 15.48351698153314","mean_motion":15.48351698,"eccentricity":0.0023074,"inclination_deg":42.9925,"raan_deg":145.2515,"arg_perigee_deg":221.5208,"mean_anomaly_deg":138.3898,"bstar":0.0018378,"rev_number":15331,"period_min":93.002126187483,"perigee_km":405.85794851659,"apogee_km":437.23713273467,"semimajor_km":6799.6845406256,"source":"CELESTRAK","updated_at":"2026-09-21T09:00:33.917242Z"}}